DEBNY EDDV-EDXW

Flight info

Callsign DEBNY
Flight time 1h 0m
Altitude 6000
Route NIE2Y NIE N850 ELSOB/N0173F070 Y348 OMWEG M105 EXNEL/N0174F060 DCT OLDIP
Aircraft BE36/L-BDFGLORY/S

Departure

Time 2026-05-07 20:14
Airport Hannover Airport (EDDV)

Arrival

Time 2026-05-07 21:14
Airport Westerland Sylt Airport (EDXW)
Time Latitude Longitude Altitude Speed Heading
2026-05-07 19:42 52.46330 9.69393 173 ft 0 kts 341°
2026-05-07 20:05 52.46331 9.69393 173 ft 2 kts 341°
2026-05-07 20:05 52.46329 9.69382 173 ft 7 kts 109°
2026-05-07 20:05 52.46301 9.69355 173 ft 10 kts 259°
2026-05-07 20:06 52.46308 9.69290 173 ft 7 kts 355°
2026-05-07 20:06 52.46353 9.69270 173 ft 6 kts 328°
2026-05-07 20:06 52.46354 9.69199 173 ft 8 kts 247°
2026-05-07 20:06 52.46331 9.69103 173 ft 10 kts 247°
2026-05-07 20:07 52.46302 9.68982 173 ft 12 kts 246°
2026-05-07 20:07 52.46268 9.68846 173 ft 14 kts 249°
2026-05-07 20:07 52.46236 9.68710 173 ft 11 kts 246°
2026-05-07 20:07 52.46201 9.68613 173 ft 8 kts 255°
2026-05-07 20:08 52.46231 9.68534 173 ft 10 kts 320°
2026-05-07 20:08 52.46296 9.68452 173 ft 13 kts 324°
2026-05-07 20:08 52.46378 9.68346 173 ft 16 kts 319°
2026-05-07 20:08 52.46473 9.68230 172 ft 16 kts 321°
2026-05-07 20:09 52.46523 9.68095 172 ft 15 kts 275°
2026-05-07 20:09 52.46527 9.67926 172 ft 12 kts 273°
2026-05-07 20:09 52.46531 9.67780 173 ft 14 kts 273°
2026-05-07 20:10 52.46541 9.67454 173 ft 16 kts 274°
2026-05-07 20:10 52.46546 9.67271 173 ft 17 kts 272°
2026-05-07 20:10 52.46552 9.67076 172 ft 16 kts 269°
2026-05-07 20:10 52.46556 9.66897 172 ft 12 kts 272°
2026-05-07 20:11 52.46561 9.66764 172 ft 11 kts 281°
2026-05-07 20:11 52.46580 9.66694 172 ft 8 kts 312°
2026-05-07 20:11 52.46639 9.66667 172 ft 11 kts
2026-05-07 20:11 52.46716 9.66672 171 ft 7 kts
2026-05-07 20:12 52.46765 9.66685 171 ft 4 kts 14°
2026-05-07 20:12 52.46786 9.66718 171 ft 5 kts 91°
2026-05-07 20:12 52.46786 9.66723 171 ft 0 kts 101°
2026-05-07 20:12 52.46786 9.66726 171 ft 1 kts 101°
2026-05-07 20:13 52.46782 9.66785 171 ft 13 kts 93°
2026-05-07 20:13 52.46782 9.66809 171 ft 0 kts 90°
2026-05-07 20:13 52.46775 9.67066 168 ft 58 kts 92°
2026-05-07 20:13 52.46758 9.68014 269 ft 97 kts 92°
2026-05-07 20:14 52.46762 9.69138 608 ft 100 kts 89°
2026-05-07 20:14 52.46773 9.70303 934 ft 106 kts 92°
2026-05-07 20:14 52.46760 9.71537 1331 ft 107 kts 95°
2026-05-07 20:14 52.46698 9.72741 1770 ft 103 kts 92°
2026-05-07 20:15 52.46677 9.73918 2161 ft 104 kts 88°
2026-05-07 20:15 52.46940 9.75007 2551 ft 106 kts 54°
2026-05-07 20:15 52.47559 9.75688 2918 ft 112 kts 26°
2026-05-07 20:15 52.48349 9.75845 3260 ft 114 kts 13°
2026-05-07 20:16 52.49134 9.75935 3562 ft 115 kts 10°
2026-05-07 20:16 52.49924 9.75920 3929 ft 110 kts
2026-05-07 20:16 52.50671 9.75915 4283 ft 106 kts
2026-05-07 20:16 52.51406 9.75674 4613 ft 112 kts 343°
2026-05-07 20:17 52.52019 9.74837 4935 ft 119 kts 312°
2026-05-07 20:17 52.52410 9.73628 5244 ft 120 kts 299°
2026-05-07 20:17 52.52755 9.72386 5551 ft 119 kts 298°
2026-05-07 20:17 52.53090 9.71154 5851 ft 117 kts 298°
2026-05-07 20:18 52.53425 9.69937 6149 ft 116 kts 298°
2026-05-07 20:18 52.53757 9.68738 6441 ft 115 kts 297°
2026-05-07 20:18 52.54086 9.67555 6712 ft 113 kts 297°
2026-05-07 20:18 52.54413 9.66384 6972 ft 112 kts 297°
2026-05-07 20:19 52.54738 9.65227 7223 ft 111 kts 297°
2026-05-07 20:19 52.55063 9.64083 7468 ft 110 kts 297°
2026-05-07 20:19 52.55382 9.62952 7707 ft 108 kts 297°
2026-05-07 20:19 52.55693 9.61849 7937 ft 107 kts 297°
2026-05-07 20:20 52.56002 9.60746 8152 ft 105 kts 296°
2026-05-07 20:20 52.56307 9.59656 8356 ft 104 kts 296°
2026-05-07 20:20 52.56620 9.58451 8265 ft 131 kts 295°
2026-05-07 20:20 52.57002 9.56999 8181 ft 148 kts 294°
2026-05-07 20:21 52.57418 9.55483 8237 ft 150 kts 297°
2026-05-07 20:21 52.57908 9.53840 7987 ft 170 kts 297°
2026-05-07 20:21 52.58448 9.52011 7697 ft 185 kts 297°
2026-05-07 20:21 52.59011 9.50041 7409 ft 195 kts 296°
2026-05-07 20:22 52.59589 9.47986 7118 ft 201 kts 296°
2026-05-07 20:22 52.60158 9.45941 7017 ft 195 kts 296°
2026-05-07 20:22 52.60711 9.43941 6994 ft 189 kts 296°
2026-05-07 20:22 52.61249 9.41999 6984 ft 185 kts 296°
2026-05-07 20:23 52.61782 9.40095 6978 ft 181 kts 298°
2026-05-07 20:23 52.62559 9.38526 6974 ft 176 kts 325°
2026-05-07 20:23 52.63645 9.37698 6972 ft 170 kts 351°
2026-05-07 20:23 52.64804 9.37689 6973 ft 166 kts 13°
2026-05-07 20:24 52.65949 9.37966 6976 ft 166 kts 10°
2026-05-07 20:24 52.67103 9.38192 6977 ft 168 kts 10°
2026-05-07 20:24 52.68251 9.38420 6977 ft 168 kts 10°
2026-05-07 20:24 52.69415 9.38657 6978 ft 168 kts 11°
2026-05-07 20:25 52.70577 9.38899 6977 ft 167 kts 11°
2026-05-07 20:25 52.71733 9.39142 6977 ft 167 kts 11°
2026-05-07 20:25 52.72882 9.39385 6977 ft 166 kts 11°
2026-05-07 20:25 52.74032 9.39628 6978 ft 166 kts 11°
2026-05-07 20:26 52.75173 9.39871 6979 ft 166 kts 11°
2026-05-07 20:26 52.76306 9.40112 6978 ft 165 kts 11°
2026-05-07 20:26 52.77446 9.40354 6978 ft 165 kts 11°
2026-05-07 20:26 52.78581 9.40595 6978 ft 164 kts 11°
2026-05-07 20:27 52.79714 9.40836 6980 ft 164 kts 11°
2026-05-07 20:27 52.80850 9.41055 6980 ft 165 kts
2026-05-07 20:27 52.81999 9.40900 6981 ft 168 kts 349°
2026-05-07 20:27 52.83115 9.40307 6982 ft 167 kts 347°
2026-05-07 20:28 52.84246 9.39820 6980 ft 168 kts 349°
2026-05-07 20:28 52.85382 9.39354 6980 ft 168 kts 349°
2026-05-07 20:28 52.86523 9.38875 6977 ft 169 kts 349°
2026-05-07 20:28 52.87661 9.38386 6977 ft 170 kts 349°
2026-05-07 20:29 52.88787 9.37895 6994 ft 168 kts 348°
2026-05-07 20:29 52.89904 9.37404 7061 ft 165 kts 348°
2026-05-07 20:29 52.91017 9.36913 7092 ft 166 kts 348°
2026-05-07 20:29 52.92144 9.36419 7108 ft 169 kts 348°
2026-05-07 20:30 52.93295 9.35912 7113 ft 172 kts 347°
2026-05-07 20:30 52.94457 9.35398 7121 ft 174 kts 347°
2026-05-07 20:30 52.95628 9.34878 7120 ft 175 kts 347°
2026-05-07 20:30 52.96802 9.34358 7119 ft 174 kts 347°
2026-05-07 20:31 52.97971 9.33838 7124 ft 173 kts 347°
2026-05-07 20:31 52.99135 9.33321 7126 ft 173 kts 347°
2026-05-07 20:31 53.00284 9.32810 7124 ft 173 kts 347°
2026-05-07 20:31 53.01454 9.32292 7122 ft 174 kts 347°
2026-05-07 20:32 53.02620 9.31775 7120 ft 174 kts 347°
2026-05-07 20:32 53.03789 9.31256 7131 ft 174 kts 347°
2026-05-07 20:32 53.04963 9.30734 7126 ft 174 kts 347°
2026-05-07 20:32 53.06141 9.30211 7128 ft 175 kts 347°
2026-05-07 20:33 53.07313 9.29691 7123 ft 174 kts 347°
2026-05-07 20:33 53.08470 9.29176 7122 ft 171 kts 347°
2026-05-07 20:33 53.09618 9.28665 7121 ft 170 kts 347°
2026-05-07 20:33 53.10754 9.28158 7125 ft 167 kts 347°
2026-05-07 20:34 53.11837 9.27678 7123 ft 160 kts 348°
2026-05-07 20:34 53.12922 9.27190 7121 ft 163 kts 347°
2026-05-07 20:34 53.14028 9.26696 7120 ft 166 kts 348°
2026-05-07 20:34 53.15144 9.26198 7122 ft 168 kts 347°
2026-05-07 20:35 53.16277 9.25693 7132 ft 169 kts 348°
2026-05-07 20:35 53.17422 9.25183 7127 ft 171 kts 347°
2026-05-07 20:35 53.18575 9.24670 7128 ft 172 kts 347°
2026-05-07 20:35 53.19733 9.24152 7129 ft 173 kts 347°
2026-05-07 20:36 53.20895 9.23633 7124 ft 173 kts 347°
2026-05-07 20:36 53.22057 9.23112 7129 ft 173 kts 347°
2026-05-07 20:36 53.23226 9.22588 7124 ft 174 kts 347°
2026-05-07 20:36 53.24379 9.22070 7124 ft 174 kts 347°
2026-05-07 20:37 53.25546 9.21546 7120 ft 174 kts 347°
2026-05-07 20:37 53.26716 9.21021 7126 ft 174 kts 347°
2026-05-07 20:37 53.27888 9.20496 7119 ft 174 kts 347°
2026-05-07 20:37 53.29058 9.19969 7121 ft 174 kts 347°
2026-05-07 20:38 53.30232 9.19442 7125 ft 174 kts 347°
2026-05-07 20:38 53.31406 9.18913 7130 ft 174 kts 347°
2026-05-07 20:38 53.32578 9.18384 7126 ft 174 kts 347°
2026-05-07 20:38 53.33751 9.17857 7123 ft 174 kts 347°
2026-05-07 20:39 53.34906 9.17336 7123 ft 174 kts 347°
2026-05-07 20:39 53.36076 9.16809 7128 ft 174 kts 347°
2026-05-07 20:39 53.37245 9.16282 7126 ft 174 kts 347°
2026-05-07 20:39 53.38419 9.15752 7130 ft 175 kts 347°
2026-05-07 20:40 53.39597 9.15220 7122 ft 175 kts 347°
2026-05-07 20:40 53.40777 9.14687 7125 ft 175 kts 347°
2026-05-07 20:40 53.41956 9.14155 7123 ft 175 kts 347°
2026-05-07 20:40 53.43135 9.13621 7126 ft 176 kts 347°
2026-05-07 20:41 53.44316 9.13087 7131 ft 176 kts 347°
2026-05-07 20:41 53.45496 9.12553 7128 ft 176 kts 347°
2026-05-07 20:41 53.46676 9.12017 7130 ft 176 kts 347°
2026-05-07 20:41 53.47842 9.11489 7119 ft 175 kts 347°
2026-05-07 20:42 53.49020 9.10953 7122 ft 175 kts 347°
2026-05-07 20:42 53.50198 9.10419 7124 ft 175 kts 347°
2026-05-07 20:42 53.51376 9.09884 7125 ft 175 kts 347°
2026-05-07 20:42 53.52552 9.09349 7128 ft 175 kts 347°
2026-05-07 20:43 53.53736 9.08812 7121 ft 176 kts 347°
2026-05-07 20:43 53.54917 9.08274 7125 ft 176 kts 347°
2026-05-07 20:43 53.56096 9.07738 7127 ft 176 kts 347°
2026-05-07 20:43 53.57280 9.07199 7123 ft 176 kts 346°
2026-05-07 20:44 53.58447 9.06666 7131 ft 176 kts 347°
2026-05-07 20:44 53.59630 9.06127 7132 ft 176 kts 347°
2026-05-07 20:44 53.60811 9.05588 7127 ft 176 kts 347°
2026-05-07 20:44 53.61994 9.05048 7133 ft 176 kts 347°
2026-05-07 20:45 53.63178 9.04507 7129 ft 176 kts 347°
2026-05-07 20:45 53.64358 9.03968 7125 ft 176 kts 347°
2026-05-07 20:45 53.65536 9.03429 7122 ft 176 kts 347°
2026-05-07 20:45 53.66720 9.02886 7128 ft 176 kts 348°
2026-05-07 20:46 53.67886 9.02352 7130 ft 176 kts 347°
2026-05-07 20:46 53.69085 9.01803 7126 ft 176 kts 348°
2026-05-07 20:46 53.70253 9.01268 7133 ft 176 kts 347°
2026-05-07 20:46 53.71436 9.00726 7136 ft 176 kts 347°
2026-05-07 20:47 53.72624 9.00182 7128 ft 176 kts 347°
2026-05-07 20:47 53.73807 8.99638 7133 ft 176 kts 347°
2026-05-07 20:47 53.74991 8.99094 7131 ft 176 kts 347°
2026-05-07 20:47 53.76173 8.98551 7133 ft 176 kts 347°
2026-05-07 20:48 53.77355 8.98008 7135 ft 176 kts 347°
2026-05-07 20:48 53.78539 8.97462 7133 ft 176 kts 347°
2026-05-07 20:48 53.79720 8.96918 7133 ft 176 kts 347°
2026-05-07 20:48 53.80905 8.96374 7132 ft 176 kts 347°
2026-05-07 20:49 53.82075 8.95833 7135 ft 176 kts 347°
2026-05-07 20:49 53.83260 8.95285 7136 ft 177 kts 347°
2026-05-07 20:49 53.84449 8.94736 7133 ft 177 kts 347°
2026-05-07 20:49 53.85637 8.94188 7134 ft 177 kts 347°
2026-05-07 20:50 53.86826 8.93638 7136 ft 177 kts 347°
2026-05-07 20:50 53.88014 8.93089 7132 ft 177 kts 347°
2026-05-07 20:50 53.89203 8.92539 7133 ft 177 kts 347°
2026-05-07 20:50 53.90395 8.91988 7133 ft 177 kts 347°
2026-05-07 20:51 53.91586 8.91438 7132 ft 177 kts 348°
2026-05-07 20:51 53.92777 8.90885 7134 ft 178 kts 347°
2026-05-07 20:51 53.93961 8.90349 7135 ft 178 kts 349°
2026-05-07 20:51 53.95159 8.89808 7134 ft 178 kts 346°
2026-05-07 20:52 53.96357 8.89248 7131 ft 178 kts 347°
2026-05-07 20:52 53.97549 8.88684 7131 ft 178 kts 346°
2026-05-07 20:52 53.98743 8.88122 7131 ft 178 kts 348°
2026-05-07 20:52 53.99940 8.87563 7131 ft 178 kts 347°
2026-05-07 20:53 54.01134 8.87004 7128 ft 178 kts 347°
2026-05-07 20:53 54.02310 8.86459 7130 ft 178 kts 347°
2026-05-07 20:53 54.03504 8.85906 7131 ft 178 kts 346°
2026-05-07 20:53 54.04699 8.85345 7132 ft 178 kts 348°
2026-05-07 20:54 54.05893 8.84782 7135 ft 178 kts 346°
2026-05-07 20:54 54.06683 8.84412 7135 ft 178 kts 348°
2026-05-07 20:54 54.07883 8.83853 7136 ft 178 kts 347°
2026-05-07 20:54 54.09079 8.83296 7137 ft 178 kts 348°
2026-05-07 20:55 54.10669 8.82554 7135 ft 179 kts 347°
2026-05-07 20:55 54.11870 8.81991 7135 ft 179 kts 348°
2026-05-07 20:55 54.12681 8.81610 7136 ft 179 kts 346°
2026-05-07 20:55 54.13884 8.81048 7132 ft 179 kts 347°
2026-05-07 20:56 54.15070 8.80492 7135 ft 179 kts 348°
2026-05-07 20:56 54.16269 8.79931 7135 ft 178 kts 347°
2026-05-07 20:56 54.17467 8.79367 7133 ft 178 kts 347°
2026-05-07 20:56 54.18661 8.78800 7132 ft 178 kts 346°
2026-05-07 20:57 54.19858 8.78236 7130 ft 178 kts 347°
2026-05-07 20:57 54.21056 8.77670 7133 ft 179 kts 346°
2026-05-07 20:57 54.22243 8.77110 7133 ft 179 kts 347°
2026-05-07 20:57 54.23446 8.76547 7140 ft 179 kts 346°
2026-05-07 20:58 54.24650 8.75980 7142 ft 179 kts 347°
2026-05-07 20:58 54.25855 8.75409 7144 ft 180 kts 346°
2026-05-07 20:58 54.27061 8.74841 7144 ft 180 kts 347°
2026-05-07 20:58 54.28268 8.74274 7139 ft 180 kts 346°
2026-05-07 20:59 54.29475 8.73705 7139 ft 180 kts 347°
2026-05-07 20:59 54.30681 8.73136 7138 ft 180 kts 346°
2026-05-07 20:59 54.31891 8.72566 7139 ft 180 kts 347°
2026-05-07 20:59 54.33081 8.72001 7140 ft 180 kts 346°
2026-05-07 21:00 54.34287 8.71431 7144 ft 180 kts 346°
2026-05-07 21:00 54.35492 8.70862 7145 ft 180 kts 347°
2026-05-07 21:00 54.36697 8.70290 7146 ft 180 kts 346°
2026-05-07 21:00 54.37903 8.69715 7149 ft 180 kts 347°
2026-05-07 21:01 54.39110 8.69145 7148 ft 180 kts 346°
2026-05-07 21:01 54.40318 8.68579 7148 ft 180 kts 347°
2026-05-07 21:01 54.41530 8.68007 7148 ft 180 kts 346°
2026-05-07 21:01 54.42738 8.67431 7145 ft 180 kts 347°
2026-05-07 21:02 54.43945 8.66858 7144 ft 180 kts 346°
2026-05-07 21:02 54.45142 8.66290 7147 ft 180 kts 347°
2026-05-07 21:02 54.46351 8.65718 7147 ft 180 kts 347°
2026-05-07 21:02 54.47562 8.65143 7144 ft 180 kts 347°
2026-05-07 21:03 54.48772 8.64567 7144 ft 180 kts 346°
2026-05-07 21:03 54.49978 8.63990 7144 ft 180 kts 346°
2026-05-07 21:03 54.51182 8.63413 7145 ft 180 kts 347°
2026-05-07 21:03 54.52392 8.62839 7145 ft 180 kts 347°
2026-05-07 21:04 54.53598 8.62261 7116 ft 181 kts 347°
2026-05-07 21:04 54.54832 8.61675 6912 ft 190 kts 346°
2026-05-07 21:04 54.56135 8.61048 6713 ft 197 kts 345°
2026-05-07 21:04 54.57470 8.60407 6513 ft 201 kts 345°
2026-05-07 21:05 54.58822 8.59758 6307 ft 203 kts 345°
2026-05-07 21:05 54.60189 8.59101 6097 ft 205 kts 345°
2026-05-07 21:05 54.61570 8.58439 5888 ft 207 kts 346°
2026-05-07 21:05 54.62954 8.57778 5682 ft 202 kts 346°
2026-05-07 21:06 54.64275 8.57151 5469 ft 192 kts 346°
2026-05-07 21:06 54.65541 8.56537 5260 ft 186 kts 346°
2026-05-07 21:06 54.66759 8.55946 5050 ft 182 kts 346°
2026-05-07 21:06 54.67972 8.55362 4841 ft 180 kts 346°
2026-05-07 21:07 54.69175 8.54784 4628 ft 179 kts 346°
2026-05-07 21:07 54.70371 8.54209 4387 ft 179 kts 346°
2026-05-07 21:07 54.71582 8.53625 4123 ft 181 kts 345°
2026-05-07 21:07 54.72802 8.53029 3867 ft 182 kts 344°
2026-05-07 21:08 54.73988 8.52323 3625 ft 178 kts 340°
2026-05-07 21:08 54.75127 8.51537 3419 ft 175 kts 338°
2026-05-07 21:08 54.76234 8.50693 3215 ft 172 kts 342°
2026-05-07 21:08 54.77336 8.50020 3092 ft 167 kts 337°
2026-05-07 21:09 54.78369 8.49188 2938 ft 157 kts 335°
2026-05-07 21:09 54.79306 8.48374 2731 ft 145 kts 333°
2026-05-07 21:09 54.80172 8.47568 2535 ft 138 kts 332°
2026-05-07 21:09 54.80998 8.46763 2346 ft 134 kts 330°
2026-05-07 21:10 54.81779 8.45907 2163 ft 132 kts 326°
2026-05-07 21:10 54.82519 8.44979 1987 ft 131 kts 323°
2026-05-07 21:10 54.83231 8.44046 1812 ft 129 kts 323°
2026-05-07 21:10 54.83949 8.43126 1637 ft 126 kts 325°
2026-05-07 21:11 54.84609 8.42315 1474 ft 111 kts 327°
2026-05-07 21:11 54.85229 8.41571 1319 ft 107 kts 327°
2026-05-07 21:11 54.86395 8.40071 1014 ft 101 kts 325°
2026-05-07 21:12 54.86941 8.39356 879 ft 97 kts 328°
2026-05-07 21:12 54.87487 8.38721 763 ft 93 kts 331°
2026-05-07 21:12 54.88023 8.38099 628 ft 92 kts 329°
2026-05-07 21:12 54.88537 8.37459 499 ft 90 kts 328°
2026-05-07 21:13 54.89023 8.36844 412 ft 86 kts 330°
2026-05-07 21:13 54.89516 8.36262 275 ft 86 kts 330°
2026-05-07 21:13 54.90006 8.35671 195 ft 87 kts 329°
2026-05-07 21:13 54.90500 8.35050 74 ft 85 kts 327°
2026-05-07 21:14 54.90888 8.34589 53 ft 53 kts 323°
2026-05-07 21:14 54.91113 8.34309 55 ft 31 kts 322°
2026-05-07 21:14 54.91245 8.34141 54 ft 13 kts 314°
2026-05-07 21:14 54.91314 8.34041 53 ft 15 kts 278°
2026-05-07 21:15 54.91264 8.33870 51 ft 18 kts 239°
2026-05-07 21:15 54.91197 8.33672 51 ft 20 kts 240°
2026-05-07 21:15 54.91126 8.33461 50 ft 21 kts 240°
2026-05-07 21:15 54.91053 8.33243 51 ft 19 kts 240°
2026-05-07 21:16 54.91009 8.33107 52 ft 5 kts 244°
2026-05-07 21:16 54.91005 8.33036 53 ft 8 kts 292°
2026-05-07 21:16 54.91048 8.32916 52 ft 15 kts 298°
2026-05-07 21:16 54.91080 8.32775 52 ft 11 kts 285°
2026-05-07 21:17 54.91110 8.32708 52 ft 5 kts 346°
2026-05-07 21:17 54.91140 8.32697 52 ft 8 kts 344°
2026-05-07 21:17 54.91180 8.32626 52 ft 8 kts 280°
2026-05-07 21:17 54.91164 8.32580 52 ft 3 kts 228°
2026-05-07 21:18 54.91162 8.32576 52 ft 0 kts 225°